FENGYUN 1C DEB, 31168

Orbit data source: Space-Track

FENGYUN 1C DEB, 31168 is space debris in SSO originally from a launch on Mon, 10 May 1999 UTC launched from the Taiyaun Space Center, China (TSC). Fengyun 1C debris stems from the Chinese weather satellite Fengyun-1C, which was intentionally destroyed by a Chinese anti-satellite missile in 2007. This event dramatically increased the amount of space debris, with thousands of trackable fragments posing hazards to satellites and human spaceflight. The Fengyun 1C debris cloud has become a focal point in discussions about space sustainability and the need for international regulations to prevent the creation of new debris.

Loading next visibility...
Identifier
31168, 1999-025BHW
Orbit
SSO
Country
Flag of CNCN / PRC
Related business
Manufacturer
Unknown
Mission
Spacecraft
Bus & Motor
Unknown
Mass
Unknown
Launch date (UTC)
1999-05-10 (27 years ago)
Launch vehicle
Unknown
Launch site
Taiyaun Space Center, China (TSC)
Object type
Payload
Rocket body
Debris
Shape & HBR
Unknown shape, 0.1 m
Radar Cross Section
Small (<0.1 m²)

Expand to show TLE details & history
Last TLE update: 13 hours ago

TLE from 13 hours ago
0 FENGYUN 1C DEB
1 31168U 99025BHW 26235.89843951  .00001793  00000-0  28800-3 0  9990
2 31168  98.9246  34.6854 0104155 356.4208   3.6238 14.69572005 28284
Epoch: 2026-08-23T21:33Z
TLE epoch observation values (Epoch: 2026-08-23T21:33:45.173Z)
Latitude
-0.00006°
Longitude
99.0593°
Altitude
592.213 km
Speed
7.603 km/s
True Right ascension
02h 18m 44s
True Declination
0° 00' 00"
Sunlit
Object was in full shadow at epoch
Visualization orbit readout
Latitude
Unknown
Longitude
Unknown
Altitude
Unknown
Speed
Unknown
Apparent Right ascension
Unknown
Apparent Declination
Unknown
Sunlit
N/A
Visualization observer readout
Local Sidereal Time
01:56:06
Azimuth
Unknown
Elevation
Unknown
Doppler factor
Unknown
Orbital elements
Apogee altitude
732.839 km
Perigee altitude
586.237 km
Semi-major axis
7,037.675 km
Eccentricity
0.01042
Inclination
98.9246°
RAAN
34.6854°
Arg. of periapsis
356.4208°
True anomaly
3.70023°
Mean anomaly
3.6238°
Eccentric anomaly
3.66191°
Mean motion
3.6762 °/min
Orbital period
97.93 mins
BSTAR
0.000288
Loading maneuver chart data...
Computing Atmospheric mass density...

Documentation

Showing up to 5 results
|